Zurück zum Katalog

STARLINK-31858

AktivKommunikationVLEO
NORAD 59658·PAYLOAD·🇺🇸 United States

Gestartet May 6, 2024 von Cape Canaveral Space Force Station

Loading…

Nächste Überflüge (nächste 24 Stunden)

TLE

AktuellSource: CelesTrak SupGP

Epoche: Sep 14, 2026, 22:39 UTC

1 59658C 24084E   26257.94423611  .00048115  00000+0  17425-2 0  2579
2 59658  43.0035  52.7177 0001876 273.0856 326.6959 15.27557251    13

Verfolge STARLINK-31858 in Echtzeit mit AllMySat

Download on the App Store